Location: Lahitte
(43.6596°N, 0.6805°E)
Time: 20:53:11
(UTC+00:00)

Cosmos 2279 Rocket - Pass Details

Date: 15 May 2026
Orbit: 962 x 978 km, 82.9° (Epoch: 8 June)

Event Time Altitude Azimuth Distance (km) Brightness Sun altitude
Exits shadow 22:16:39 40° 114° (ESE) 1,409 4.5 -23.5°
Maximum altitude 22:17:40 43° 89° (E) 1,347 4.5 -23.5°
Drops below altitude 10° 22:23:31 10° 21° (NNE) 2,737 6.9 -24.0°
Sets 22:26:09 0° 15° (NNE) 3,688 7.8 -24.2°
